H1 CPF 2 NER 2024 9 8 9 252 01 glonass144 H2 2207501 9144 52984 2024 9 8 0 0 0 2024 9 11 23 45 0 900 1 1 0 0 0 1 H9 10 0 60561 0.00000 0 25131439.249 -4328134.791 540497.290 10 0 60561 900.00000 0 24845300.135 -4417614.325 3739517.331 10 0 60561 1800.00000 0 24179635.538 -4377629.940 6865914.185 10 0 60561 2700.00000 0 23164846.256 -4160933.361 9859023.544 10 0 60561 3600.00000 0 21842328.006 -3727667.709 12660817.885 10 0 60561 4500.00000 0 20262734.619 -3047296.272 15217026.105 10 0 60561 5400.00000 0 18483876.213 -2100137.411 17478176.487 10 0 60561 6300.00000 0 16568340.980 -878441.174 19400543.584 10 0 60561 7200.00000 0 14580940.191 613037.418 20946981.780 10 0 60561 8100.00000 0 12586082.799 2356992.432 22087630.743 10 0 60561 9000.00000 0 10645188.285 4324050.595 22800480.508 10 0 60561 9900.00000 0 8814244.347 6473764.721 23071786.625 10 0 60561 10800.00000 0 7141609.561 8756076.552 22896328.453 10 0 60561 11700.00000 0 5666150.820 11113189.385 22277506.417 10 0 60561 12600.00000 0 4415791.440 13481774.194 21227276.732 10 0 60561 13500.00000 0 3406528.924 15795419.281 19765924.743 10 0 60561 14400.00000 0 2641962.122 17987223.437 17921680.757 10 0 60561 15300.00000 0 2113346.737 19992426.461 15730184.856 10 0 60561 16200.00000 0 1800176.379 21750968.968 13233809.861 10 0 60561 17100.00000 0 1671264.773 23209875.928 10480854.148 10 0 60561 18000.00000 0 1686283.885 24325365.072 7524618.638 10 0 60561 18900.00000 0 1797693.604 25064592.187 4422384.568 10 0 60561 19800.00000 0 1952982.084 25406959.962 1234310.876 10 0 60561 20700.00000 0 2097122.391 25344934.780 -1977728.057 10 0 60561 21600.00000 0 2175141.665 24884336.211 -5151342.047 10 0 60561 22500.00000 0 2134693.739 24044085.851 -8224838.804 10 0 60561 23400.00000 0 1928525.609 22855424.926 -11138427.670 10 0 60561 24300.00000 0 1516732.178 21360632.439 -13835389.383 10 0 60561 25200.00000 0 868702.372 19611296.901 -16263188.360 10 0 60561 26100.00000 0 -35327.502 17666213.684 -18374504.935 10 0 60561 27000.00000 0 -1203180.728 15588996.015 -20128166.635 10 0 60561 27900.00000 0 -2630155.682 13445499.838 -21489959.603 10 0 60561 28800.00000 0 -4298976.466 11301170.771 -22433303.648 10 0 60561 29700.00000 0 -6180282.555 9218424.650 -22939777.278 10 0 60561 30600.00000 0 -8233638.473 7254171.700 -22999482.073 10 0 60561 31500.00000 0 -10409022.321 5457588.262 -22611239.002 10 0 60561 32400.00000 0 -12648731.599 3868229.399 -21782612.706 10 0 60561 33300.00000 0 -14889627.036 2514561.153 -20529763.173 10 0 60561 34200.00000 0 -17065620.572 1412973.432 -18877127.723 10 0 60561 35100.00000 0 -19110303.259 567313.926 -16856939.630 10 0 60561 36000.00000 0 -20959602.786 -31038.627 -14508593.006 10 0 60561 36900.00000 0 -22554358.921 -402566.522 -11877866.748 10 0 60561 37800.00000 0 -23842708.658 -578497.915 -9016023.226 10 0 60561 38700.00000 0 -24782180.933 -599233.400 -5978799.998 10 0 60561 39600.00000 0 -25341413.062 -512382.722 -2825315.045 10 0 60561 40500.00000 0 -25501417.262 -370496.481 383092.205 10 0 60561 41400.00000 0 -25256344.868 -228590.463 3584060.631 10 0 60561 42300.00000 0 -24613717.043 -141568.674 6715423.727 10 0 60561 43200.00000 0 -23594113.461 -161655.137 9716418.250 10 0 60561 44100.00000 0 -22230333.416 -335943.718 12528861.374 10 0 60561 45000.00000 0 -20566065.742 -704169.752 15098273.524 10 0 60561 45900.00000 0 -18654124.340 -1296797.478 17374925.514 10 0 60561 46800.00000 0 -16554323.735 -2133503.636 19314790.520 10 0 60561 47700.00000 0 -14331083.762 -3222120.700 20880383.532 10 0 60561 48600.00000 0 -12050863.069 -4558083.903 22041473.349 10 0 60561 49500.00000 0 -9779527.645 -6124405.171 22775654.790 10 0 60561 50400.00000 0 -7579762.726 -7892175.352 23068771.361 10 0 60561 51300.00000 0 -5508634.202 -9821574.377 22915181.375 10 0 60561 52200.00000 0 -3615399.128 -11863348.303 22317863.173 10 0 60561 53100.00000 0 -1939654.594 -13960692.983 21288357.818 10 0 60561 54000.00000 0 -509900.215 -16051467.583 19846550.297 10 0 60561 54900.00000 0 657427.415 -18070647.472 18020292.932 10 0 60561 55800.00000 0 1558409.176 -19952916.012 15844877.404 10 0 60561 56700.00000 0 2201568.628 -21635288.725 13362364.397 10 0 60561 57600.00000 0 2607271.464 -23059661.519 10620782.472 10 0 60561 58500.00000 0 2806624.505 -24175177.279 7673210.358 10 0 60561 59400.00000 0 2839920.286 -24940312.065 4576759.162 10 0 60561 60300.00000 0 2754692.473 -25324593.325 1391473.240 10 0 60561 61200.00000 0 2603463.850 -25309877.299 -1820829.638 10 0 60561 62100.00000 0 2441281.912 -24891130.964 -4997756.621 10 0 60561 63000.00000 0 2323146.421 -24076684.290 -8077553.327 10 0 60561 63900.00000 0 2301438.291 -22887940.800 -11000308.615 10 0 60561 64800.00000 0 2423459.524 -21358557.182 -13709126.571 10 0 60561 65700.00000 0 2729189.519 -19533125.189 -16151242.118 10 0 60561 66600.00000 0 3249354.232 -17465410.196 -18279057.676 10 0 60561 67500.00000 0 4003891.535 -15216219.687 -20051079.842 10 0 60561 68400.00000 0 5000879.452 -12850990.633 -21432737.089 10 0 60561 69300.00000 0 6235974.344 -10437196.790 -22397061.862 10 0 60561 70200.00000 0 7692384.440 -8041684.522 -22925223.256 10 0 60561 71100.00000 0 9341381.399 -5728048.788 -23006899.493 10 0 60561 72000.00000 0 11143329.635 -3554159.218 -22640482.625 10 0 60561 72900.00000 0 13049191.102 -1569939.751 -21833111.314 10 0 60561 73800.00000 0 15002442.983 184505.502 -20600530.914 10 0 60561 74700.00000 0 16941328.020 1680342.197 -18966783.635 10 0 60561 75600.00000 0 18801343.035 2900971.638 -16963734.927 10 0 60561 76500.00000 0 20517860.957 3842473.285 -14630445.553 10 0 60561 77400.00000 0 22028775.859 4513506.858 -12012402.026 10 0 60561 78300.00000 0 23277059.519 4934679.976 -9160620.968 10 0 60561 79200.00000 0 24213121.744 5137410.005 -6130645.548 10 0 60561 80100.00000 0 24796875.039 5162330.199 -2981454.437 10 0 60561 81000.00000 0 24999416.975 5057309.587 225694.548 10 0 60561 81900.00000 0 24804259.803 4875172.137 3428462.722 10 0 60561 82800.00000 0 24208056.233 4671213.311 6564646.545 10 0 60561 83700.00000 0 23220791.819 4500620.361 9573387.127 10 0 60561 84600.00000 0 21865436.768 4415906.268 12396349.415 10 0 60561 85500.00000 0 20177072.879 4464466.272 14978848.134 10 0 60562 0.00000 0 18201533.271 4686360.123 17270898.883 10 0 60562 900.00000 0 15993611.312 5112413.508 19228175.963 10 0 60562 1800.00000 0 13614916.551 5762717.809 20812856.458 10 0 60562 2700.00000 0 11131463.396 6645591.198 21994339.635 10 0 60562 3600.00000 0 8611094.862 7757044.067 22749826.033 10 0 60562 4500.00000 0 6120846.468 9080771.192 23064747.648 10 0 60562 5400.00000 0 3724358.471 10588671.169 22933041.845 10 0 60562 6300.00000 0 1479442.146 12241872.116 22357264.534 10 0 60562 7200.00000 0 -564100.668 13992221.802 21348540.834 10 0 60562 8100.00000 0 -2366316.083 15784181.406 19926354.133 10 0 60562 9000.00000 0 -3898519.964 17557045.481 18118177.131 10 0 60562 9900.00000 0 -5144245.241 19247397.092 15958951.119 10 0 60562 10800.00000 0 -6099676.272 20791697.152 13490422.371 10 0 60562 11700.00000 0 -6773552.803 22128901.052 10760347.142 10 0 60562 12600.00000 0 -7186547.791 23202993.963 7821579.319 10 0 60562 13500.00000 0 -7370145.268 23965339.071 4731057.132 10 0 60562 14400.00000 0 -7365065.211 24376740.130 1548707.532 10 0 60562 15300.00000 0 -7219301.544 24409131.144 -1663711.161 10 0 60562 16200.00000 0 -6985855.925 24046821.098 -4843806.241 10 0 60562 17100.00000 0 -6720263.048 23287240.020 -7929763.963 10 0 60562 18000.00000 0 -6478012.432 22141153.370 -10861555.298 10 0 60562 18900.00000 0 -6311976.397 20632334.088 -13582110.066 10 0 60562 19800.00000 0 -6269953.992 18796704.453 -16038435.844 10 0 60562 20700.00000 0 -6392436.022 16680982.460 -18182659.020 10 0 60562 21600.00000 0 -6710687.141 14340888.372 -19972966.850 10 0 60562 22500.00000 0 -7245227.655 11838985.824 -21374431.450 10 0 60562 23400.00000 0 -8004780.742 9242247.479 -22359698.923 10 0 60562 24300.00000 0 -8985731.102 6619446.819 -22909529.675 10 0 60562 25200.00000 0 -10172119.223 4038485.123 -23013178.978 10 0 60562 26100.00000 0 -11536172.711 1563765.366 -22668610.032 10 0 60562 27000.00000 0 -13039353.208 -746277.228 -21882535.195 10 0 60562 27900.00000 0 -14633875.451 -2841384.953 -20670284.480 10 0 60562 28800.00000 0 -16264634.835 -4681335.680 -19055503.882 10 0 60562 29700.00000 0 -17871462.418 -6237372.168 -17069689.553 10 0 60562 30600.00000 0 -19391612.241 -7493143.816 -14751567.116 10 0 60562 31500.00000 0 -20762375.890 -8445122.725 -12146328.661 10 0 60562 32400.00000 0 -21923713.736 -9102478.319 -9304742.834 10 0 60562 33300.00000 0 -22820791.599 -9486417.803 -6282156.067 10 0 60562 34200.00000 0 -23406315.552 -9629022.322 -3137405.282 10 0 60562 35100.00000 0 -23642566.412 -9571630.157 68335.822 10 0 60562 36000.00000 0 -23503048.241 -9362837.304 3272753.568 10 0 60562 36900.00000 0 -22973681.787 -9056201.778 6413609.979 10 0 60562 37800.00000 0 -22053493.082 -8707750.167 9429953.157 10 0 60562 38700.00000 0 -20754769.014 -8373392.984 12263298.442 10 0 60562 39600.00000 0 -19102674.238 -8106358.734 14858757.412 10 0 60562 40500.00000 0 -17134346.097 -7954755.122 17166093.234 10 0 60562 41400.00000 0 -14897505.984 -7959360.085 19140682.691 10 0 60562 42300.00000 0 -12448645.449 -8151735.199 20744367.275 10 0 60562 43200.00000 0 -9850862.515 -8552740.122 21946178.238 10 0 60562 44100.00000 0 -7171437.690 -9171509.868 22722922.962 10 0 60562 45000.00000 0 -4479249.450 -10004937.269 23059622.649 10 0 60562 45900.00000 0 -1842135.073 -11037682.127 22949794.045 10 0 60562 46800.00000 0 675695.394 -12242706.859 22395570.598 10 0 60562 47700.00000 0 3016086.605 -13582316.800 21407661.119 10 0 60562 48600.00000 0 5129108.037 -15009662.691 20005146.746 10 0 60562 49500.00000 0 6974878.457 -16470643.843 18215119.617 10 0 60562 50400.00000 0 8524970.403 -17906133.843 16072169.418 10 0 60562 51300.00000 0 9763337.449 -19254437.210 13617726.514 10 0 60562 52200.00000 0 10686726.416 -20453875.483 10899273.069 10 0 60562 53100.00000 0 11304557.744 -21445395.364 7969436.057 10 0 60562 54000.00000 0 11638279.192 -22175090.124 4884978.492 10 0 60562 54900.00000 0 11720219.928 -22596528.460 1705707.365 10 0 60562 55800.00000 0 11591992.956 -22672792.457 -1506681.180 10 0 60562 56700.00000 0 11302513.016 -22378137.978 -4689797.418 10 0 60562 57600.00000 0 10905713.478 -21699206.208 -7781771.136 10 0 60562 58500.00000 0 10458058.798 -20635733.677 -10722458.311 10 0 60562 59400.00000 0 10015958.074 -19200729.032 -13454617.345 10 0 60562 60300.00000 0 9633189.734 -17420107.202 -15925031.226 10 0 60562 61200.00000 0 9358447.225 -15331794.653 -18085552.880 10 0 60562 62100.00000 0 9233110.618 -12984341.715 -19894052.569 10 0 60562 63000.00000 0 9289339.607 -10435098.972 -21315248.066 10 0 60562 63900.00000 0 9548569.803 -7748033.231 -22321400.754 10 0 60562 64800.00000 0 10020477.099 -4991273.859 -22892863.534 10 0 60562 65700.00000 0 10702455.013 -2234491.736 -23018469.447 10 0 60562 66600.00000 0 11579628.016 453779.803 -22695753.086 10 0 60562 67500.00000 0 12625401.041 3008770.251 -21931000.320 10 0 60562 68400.00000 0 13802522.527 5371933.922 -20739125.216 10 0 60562 69300.00000 0 15064616.346 7493146.057 -19143376.574 10 0 60562 70200.00000 0 16358118.018 9332541.732 -17174879.903 10 0 60562 71100.00000 0 17624533.269 10861921.465 -14872024.001 10 0 60562 72000.00000 0 18802923.201 12065665.731 -12279704.502 10 0 60562 72900.00000 0 19832510.660 12941121.544 -9448439.713 10 0 60562 73800.00000 0 20655297.195 13498446.668 -6433376.659 10 0 60562 74700.00000 0 21218579.632 13759920.048 -3293207.591 10 0 60562 75600.00000 0 21477259.658 13758749.718 -89018.982 10 0 60562 76500.00000 0 21395848.752 13537430.607 3116903.681 10 0 60562 77400.00000 0 20950083.966 13145723.600 6262291.182 10 0 60562 78300.00000 0 20128086.684 12638342.906 9286101.687 10 0 60562 79200.00000 0 18931016.063 12072450.800 12129703.817 10 0 60562 80100.00000 0 17373190.231 11505066.384 14738008.645 10 0 60562 81000.00000 0 15481670.722 10990498.109 17060529.090 10 0 60562 81900.00000 0 13295327.975 10577908.187 19052346.877 10 0 60562 82800.00000 0 10863427.107 10309110.950 20674969.426 10 0 60562 83700.00000 0 8243792.858 10216697.007 21897061.365 10 0 60562 84600.00000 0 5500629.515 10322561.086 22695037.952 10 0 60562 85500.00000 0 2702085.539 10636894.463 23053510.230 10 0 60563 0.00000 0 -82337.123 11157683.510 22965574.566 10 0 60563 900.00000 0 -2784424.737 11870735.302 22432941.679 10 0 60563 1800.00000 0 -5339833.108 12750228.565 21465903.342 10 0 60563 2700.00000 0 -7690508.371 13759768.291 20083137.236 10 0 60563 3600.00000 0 -9786844.975 14853900.142 18311353.301 10 0 60563 4500.00000 0 -11589494.336 15980022.605 16184787.572 10 0 60563 5400.00000 0 -13070750.049 17080618.090 13744552.158 10 0 60563 6300.00000 0 -14215452.888 18095710.690 11037852.549 10 0 60563 7200.00000 0 -15021378.389 18965448.546 8117086.092 10 0 60563 8100.00000 0 -15499091.002 19632703.058 5038837.801 10 0 60563 9000.00000 0 -15671270.894 20045575.938 1862791.912 10 0 60563 9900.00000 0 -15571541.397 20159708.305 -1349420.382 10 0 60563 10800.00000 0 -15242846.179 19940293.815 -4535415.063 10 0 60563 11700.00000 0 -14735444.283 19363709.730 -7633268.096 10 0 60563 12600.00000 0 -14104607.544 18418695.543 -10582722.998 10 0 60563 13500.00000 0 -13408117.796 17107027.590 -13326369.127 10 0 60563 14400.00000 0 -12703669.982 15443659.201 -15810767.033 10 0 60563 15300.00000 0 -12046291.594 13456318.484 -17987498.097 10 0 60563 16200.00000 0 -11485888.341 11184578.779 -19814117.194 10 0 60563 17100.00000 0 -11065020.707 8678439.145 -21254989.060 10 0 60563 18000.00000 0 -10817006.411 5996473.123 -22281991.342 10 0 60563 18900.00000 0 -10764429.857 3203622.275 -22875070.090 10 0 60563 19800.00000 0 -10918122.448 368726.118 -23022636.414 10 0 60563 20700.00000 0 -11276657.500 -2438108.707 -22721796.258 10 0 60563 21600.00000 0 -11826381.639 -5148190.380 -21978408.579 10 0 60563 22500.00000 0 -12541981.598 -7696863.153 -20806970.705 10 0 60563 23400.00000 0 -13387562.555 -10025958.568 -19230333.081 10 0 60563 24300.00000 0 -14318192.245 -12085974.594 -17279249.081 10 0 60563 25200.00000 0 -15281845.238 -13837892.087 -14991768.892 10 0 60563 26100.00000 0 -16221664.621 -15254553.395 -12412489.690 10 0 60563 27000.00000 0 -17078444.798 -16321546.514 -9591677.276 10 0 60563 27900.00000 0 -17793229.686 -17037559.221 -6584277.000 10 0 60563 28800.00000 0 -18309915.751 -17414190.117 -3448834.108 10 0 60563 29700.00000 0 -18577749.196 -17475226.540 -246345.465 10 0 60563 30600.00000 0 -18553611.393 -17255421.998 2960934.060 10 0 60563 31500.00000 0 -18203995.775 -16798826.644 6110706.463 10 0 60563 32400.00000 0 -17506592.737 -16156743.087 9141842.477 10 0 60563 33300.00000 0 -16451416.007 -15385395.424 11995566.507 10 0 60563 34200.00000 0 -15041423.416 -14543410.897 14616591.591 10 0 60563 35100.00000 0 -13292606.411 -13689220.962 16954182.737 10 0 60563 36000.00000 0 -11233544.817 -12878491.301 18963128.779 10 0 60563 36900.00000 0 -8904445.655 -12161688.534 20604604.967 10 0 60563 37800.00000 0 -6355705.966 -11581885.108 21846910.893 10 0 60563 38700.00000 0 -3646058.996 -11172893.466 22666070.908 10 0 60563 39600.00000 0 -840379.946 -10957806.623 23046286.750 10 0 60563 40500.00000 0 1992758.861 -10948005.206 22980234.824 10 0 60563 41400.00000 0 4783683.640 -11142671.721 22469203.277 10 0 60563 42300.00000 0 7464259.784 -11528831.875 21523066.658 10 0 60563 43200.00000 0 9970469.975 -12081921.158 20160098.693 10 0 60563 44100.00000 0 12244824.726 -12766853.313 18406626.310 10 0 60563 45000.00000 0 14238506.968 -13539546.654 16296530.805 10 0 60563 45900.00000 0 15913162.964 -14348845.222 13870604.620 10 0 60563 46800.00000 0 17242266.012 -15138755.247 11175774.839 10 0 60563 47700.00000 0 18211996.698 -15850903.990 8264207.104 10 0 60563 48600.00000 0 18821603.138 -16427118.349 5192306.019 10 0 60563 49500.00000 0 19083226.087 -16812015.133 2019630.369 10 0 60563 50400.00000 0 19021195.915 -16955493.789 -1192256.532 10 0 60563 51300.00000 0 18670830.615 -16815025.944 -4380979.442 10 0 60563 52200.00000 0 18076785.029 -16357644.120 -7484563.623 10 0 60563 53100.00000 0 17291020.563 -15561544.200 -10442643.211 10 0 60563 54000.00000 0 16370480.937 -14417232.208 -13197641.493 10 0 60563 54900.00000 0 15374572.184 -12928164.945 -15695899.382 10 0 60563 55800.00000 0 14362553.660 -11110855.369 -17888729.287 10 0 60563 56700.00000 0 13390950.787 -8994436.147 -19733373.001 10 0 60563 57600.00000 0 12511099.465 -6619697.781 -21193844.193 10 0 60563 58500.00000 0 11766926.579 -4037640.022 -22241638.363 10 0 60563 59400.00000 0 11193061.037 -1307595.934 -22856295.864 10 0 60563 60300.00000 0 10813355.677 1504993.904 -23025806.591 10 0 60563 61200.00000 0 10639882.930 4331064.620 -22746848.070 10 0 60563 62100.00000 0 10672446.886 7100564.386 -22024852.137 10 0 60563 63000.00000 0 10898632.401 9745135.930 -20873898.732 10 0 60563 63900.00000 0 11294388.973 12200730.378 -19316438.897 10 0 60563 64800.00000 0 11825124.287 14410044.375 -17382852.443 10 0 60563 65700.00000 0 12447260.570 16324678.949 -15110849.167 10 0 60563 66600.00000 0 13110187.119 17906930.280 -12544725.660 10 0 60563 67500.00000 0 13758525.490 19131138.200 -9734492.781 10 0 60563 68400.00000 0 14334610.508 19984537.075 -6734891.472 10 0 60563 69300.00000 0 14781081.135 20467574.789 -3604316.997 10 0 60563 70200.00000 0 15043470.686 20593688.237 -403673.479 10 0 60563 71100.00000 0 15072686.128 20388546.755 2804818.055 10 0 60563 72000.00000 0 14827271.143 19888797.307 5958834.036 10 0 60563 72900.00000 0 14275357.134 19140366.307 8997160.860 10 0 60563 73800.00000 0 13396219.795 18196391.229 11860881.634 10 0 60563 74700.00000 0 12181375.848 17114870.513 14494514.022 10 0 60563 75600.00000 0 10635174.114 15956131.572 16847077.511 10 0 60563 76500.00000 0 8774856.263 14780223.661 18873070.120 10 0 60563 77400.00000 0 6630084.855 13644344.997 20533336.665 10 0 60563 78300.00000 0 4241958.232 12600411.403 21795813.095 10 0 60563 79200.00000 0 1661552.870 11692867.381 22636133.872 10 0 60563 80100.00000 0 -1051946.944 10956830.002 23038092.032 10 0 60563 81000.00000 0 -3833455.596 10416641.960 22993944.209 10 0 60563 81900.00000 0 -6614438.759 10084893.057 22504555.655 10 0 60563 82800.00000 0 -9325512.163 9961950.077 21579382.879 10 0 60563 83700.00000 0 -11899080.659 10036014.070 20236294.340 10 0 60563 84600.00000 0 -14271910.055 10283702.447 18501232.178 10 0 60563 85500.00000 0 -16387526.639 10671131.715 16407720.738 10 0 60564 0.00000 0 -18198346.047 11155455.966 13996230.469 10 0 60564 900.00000 0 -19667444.863 11686797.602 11313406.808 10 0 60564 1800.00000 0 -20769899.412 12210489.344 8411180.946 10 0 60564 2700.00000 0 -21493639.329 12669534.831 5345774.092 10 0 60564 3600.00000 0 -21839777.576 13007184.017 2176616.611 10 0 60564 4500.00000 0 -21822403.711 13169515.152 -1034798.947 10 0 60564 5400.00000 0 -21467848.361 13107914.020 -4226108.887 10 0 60564 6300.00000 0 -20813449.203 12781344.900 -7335290.420 10 0 60564 7200.00000 0 -19905869.916 12158316.059 -10301870.815 10 0 60564 8100.00000 0 -18799042.518 11218455.075 -13068109.621 10 0 60564 9000.00000 0 -17551819.710 9953625.496 -15580130.245 10 0 60564 9900.00000 0 -16225436.294 8368535.557 -17788977.975 10 0 60564 10800.00000 0 -14880887.023 6480811.119 -19651583.054 10 0 60564 11700.00000 0 -13576331.895 4320527.588 -21131609.252 10 0 60564 12600.00000 0 -12364638.818 1929218.587 -22200170.693 10 0 60564 13500.00000 0 -11291167.790 -641598.693 -22836402.407 10 0 60564 14400.00000 0 -10391890.407 -3332320.976 -23027873.025 10 0 60564 15300.00000 0 -9691924.288 -6077500.763 -22770831.229 10 0 60564 16200.00000 0 -9204544.272 -8808339.428 -22070280.910 10 0 60564 17100.00000 0 -8930711.914 -11455327.730 -20939883.451 10 0 60564 18000.00000 0 -8859142.735 -13950923.522 -19401688.991 10 0 60564 18900.00000 0 -8966907.695 -16232154.866 -17485702.020 10 0 60564 19800.00000 0 -9220542.595 -18243039.786 -15229289.966 10 0 60564 20700.00000 0 -9577617.422 -19936721.662 -12676446.724 10 0 60564 21600.00000 0 -9988698.068 -21277231.303 -9876926.016 10 0 60564 22500.00000 0 -10399616.121 -22240802.613 -6885262.169 10 0 60564 23400.00000 0 -10753949.395 -22816687.677 -3759698.284 10 0 60564 24300.00000 0 -10995607.009 -23007438.528 -561043.580 10 0 60564 25200.00000 0 -11071408.624 -22828645.401 2648516.888 10 0 60564 26100.00000 0 -10933547.931 -22308144.336 5806636.096 10 0 60564 27000.00000 0 -10541835.738 -21484729.243 8852018.230 10 0 60564 27900.00000 0 -9865627.660 -20406424.395 11725607.229 10 0 60564 28800.00000 0 -8885355.169 -19128391.578 14371727.495 10 0 60564 29700.00000 0 -7593595.628 -17710560.813 16739155.038 10 0 60564 30600.00000 0 -5995636.551 -16215084.732 18782098.981 10 0 60564 31500.00000 0 -4109510.517 -14703723.421 20461075.452 10 0 60564 32400.00000 0 -1965499.224 -13235268.818 21743658.244 10 0 60564 33300.00000 0 394873.031 -11863115.469 22605093.140 10 0 60564 34200.00000 0 2920315.173 -10633077.964 23028765.361 10 0 60564 35100.00000 0 5551654.175 -9581544.716 23006512.347 10 0 60564 36000.00000 0 8224052.046 -8734043.680 22538776.697 10 0 60564 36900.00000 0 10869464.583 -8104278.552 21634596.835 10 0 60564 37800.00000 0 13419241.773 -7693674.573 20311435.608 10 0 60564 38700.00000 0 15806763.793 -7491452.229 18594849.739 10 0 60564 39600.00000 0 17970004.896 -7475225.435 16518005.714 10 0 60564 40500.00000 0 19853920.135 -7612099.228 14121050.312 10 0 60564 41400.00000 0 21412556.745 -7860221.308 11450346.658 10 0 60564 42300.00000 0 22610802.855 -8170722.856 8557589.205 10 0 60564 43200.00000 0 23425700.815 -8489967.567 5498813.530 10 0 60564 44100.00000 0 23847270.058 -8762014.682 2333319.020 10 0 60564 45000.00000 0 23878804.527 -8931192.325 -877475.369 10 0 60564 45900.00000 0 23536631.516 -8944672.402 -4071220.528 10 0 60564 46800.00000 0 22849341.225 -8754937.642 -7185848.735 10 0 60564 47700.00000 0 21856518.651 -8322035.500 -10160783.502 10 0 60564 48600.00000 0 20607030.544 -7615522.184 -12938123.650 10 0 60564 49500.00000 0 19156939.066 -6616012.825 -15463777.906 10 0 60564 50400.00000 0 17567129.811 -5316270.296 -17688527.045 10 0 60564 51300.00000 0 15900754.098 -3721784.535 -19568992.095 10 0 60564 52200.00000 0 14220593.397 -1850815.753 -21068488.971 10 0 60564 53100.00000 0 12586457.204 266102.334 -22157752.140 10 0 60564 54000.00000 0 11052724.218 2587180.263 -22815512.651 10 0 60564 54900.00000 0 9666130.603 5060870.405 -23028918.824 10 0 60564 55800.00000 0 8463898.603 7627782.797 -22793791.013 10 0 60564 56700.00000 0 7472284.214 10222939.835 -22114705.239 10 0 60564 57600.00000 0 6705604.798 12778276.034 -21004903.948 10 0 60564 58500.00000 0 6165787.020 15225278.473 -19486035.556 10 0 60564 59400.00000 0 5842453.355 17497657.547 -17587727.967 10 0 60564 60300.00000 0 5713542.386 19533936.255 -15347004.572 10 0 60564 61200.00000 0 5746435.394 21279849.586 -12807554.502 10 0 60564 62100.00000 0 5899540.177 22690453.662 -10018871.908 10 0 60564 63000.00000 0 6124263.521 23731856.551 -7035281.744 10 0 60564 63900.00000 0 6367287.319 24382498.825 -3914871.907 10 0 60564 64800.00000 0 6573050.507 24633931.055 -718353.478 10 0 60564 65700.00000 0 6686330.426 24491056.909 2492127.814 10 0 60564 66600.00000 0 6654813.333 23971833.220 5654204.862 10 0 60564 67500.00000 0 6431544.538 23106441.230 8706502.934 10 0 60564 68400.00000 0 5977154.177 21935965.452 11589829.910 10 0 60564 69300.00000 0 5261764.467 20510637.225 14248319.822 10 0 60564 70200.00000 0 4266498.129 18887717.826 16630507.802 10 0 60564 71100.00000 0 2984524.664 17129110.660 18690316.366 10 0 60564 72000.00000 0 1421600.704 15298802.724 20387934.887 10 0 60564 72900.00000 0 -403918.192 13460242.088 21690576.576 10 0 60564 73800.00000 0 -2461595.001 11673760.168 22573099.700 10 0 60564 74700.00000 0 -4709936.919 9994145.152 23018482.407 10 0 60564 75600.00000 0 -7097887.416 8468466.268 23018143.201 10 0 60564 76500.00000 0 -9566723.902 7134237.905 22572101.797 10 0 60564 77400.00000 0 -12052283.650 6017998.526 21688977.749 10 0 60564 78300.00000 0 -14487427.299 5134362.120 20385826.980 10 0 60564 79200.00000 0 -16804639.460 4485580.661 18687818.956 10 0 60564 80100.00000 0 -18938660.099 4061635.047 16627759.970 10 0 60564 81000.00000 0 -20829038.802 3840850.352 14245470.623 10 0 60564 81900.00000 0 -22422506.816 3791009.606 11587028.234 10 0 60564 82800.00000 0 -23675068.678 3870919.614 8703887.462 10 0 60564 83700.00000 0 -24553726.443 4032363.416 5651894.905 10 0 60564 84600.00000 0 -25037764.217 4222357.587 2490215.635 10 0 60564 85500.00000 0 -25119538.660 4385619.446 -719808.240 99